2009 HC82

Japanese version
Home page
Updated on May 8, 2009

---------------------------------------------------------------------

* Profile

Discovery Date April 29, 2009
Magnitude 20.4 mag
Discoverer Catalina Sky Survey

* Orbital Elements

The following orbital elements are taken from MPEC 2009-J28:

Epoch 2009 June 18.0 TT = JDT 2455000.5                 MPC
M  56.87666              (2000.0)            P               Q
n   0.25062318     Peri.  297.83724     +0.92074984     -0.01072318
a   2.4914675      Node   294.86442     +0.07049138     -0.97859886
e   0.8075198      Incl.  154.54190     -0.38373259     -0.20549767
P   3.93           H   16.2           G   0.15           U   9
From 29 observations 2009 Apr. 29-May 6, mean residual 0".58.

* Magnitudes Graph

        H = 16.2  G = 0.15

---------------------------------------------------------------------

The orbital elements are published at the MPC Ephemerides and Orbital Elements.
The magnitudes graphs are made with Comet for Windows.

---------------------------------------------------------------------

Copyright(C) Seiichi Yoshida (comet@aerith.net). All rights reserved.